User: anonymous   Login
Location: Passau
(48.5830°N, 13.4830°E)
Time: 13:56:36
(UTC+01:00)
Language:

AO-92 - Orbit

View from above orbital plane
View from above orbital plane
View from above satellite
View from above satellite

Ground track
Ground track

The orbit data is extracted from the following two-line orbital elements,

1 43137U 18004AC  21340.17303580  .00003014  00000-0  11933-3 0  9996
2 43137  97.3918  52.3847 0007631 335.6439  24.4438 15.26191522216835
Epoch (UTC): 06 December 2021 04:09:10
Eccentricity: 0.0007631
inclination: 97.3918°
perigee height: 482 km
apogee height: 492 km
right ascension of ascending node: 52.3847°
argument of perigee: 335.6439°
revolutions per day: 15.26191522
mean anomaly at epoch: 24.4438°
orbit number at epoch: 21683

The dashed part of the orbit path shows where the satellite is in the earth's shadow,  

DLR